Flag for France Weather past 2 weeks in Lille, France

Now
63 °F

Clear.


Feels Like: 63 °F
Forecast: 55 / 73 °F
Wind: 6 mph from Northeast

Location: Lille Airport

Current Time: Sep 3, 2014 at 12:01:30 AM

Latest Report: Sep 2, 2014 at 11:00 PM


Visibility: 5 mi

Pressure: 30.21 "Hg

Humidity: 83%

Dew point: 57 °F

Location of LilleLocation

Historic Weather in Lille — Graph

°F

Lille temperature yesterday

Maximum temperature yesterday: 70 °F (at 2:30 PM)
Minimum temperature yesterday: 59 °F (at 2:00 AM)
Average temperature yesterday: 64 °F

Past Weeks' High & Low Weather Summary

 TemperatureHumidityPressure
High72 °F (Aug 29, 3:30 PM)100% (Aug 19, 3:00 AM)30.21 "Hg (Aug 19, 3:00 AM)
Low46 °F (Aug 20, 5:00 AM)43% (Aug 23, 5:00 PM)29.59 "Hg (Aug 26, 2:00 AM)
Average60 °F81%29.97 "Hg
* Reported Aug 18 11:00 PM — Sep 2 11:00 PM, Lille, Weather by CustomWeather, © 2014

Note: Actual official high and low records may vary slightly from our data, if they occured in-between our weather recording intervals... More about our weather records

Advertising

Lille weather history for previous 24 hours

 ConditionsComfort  
Time TempWeatherWind HumidityBarometerVisibility
11:00 PM
Sep 2
63 °FClear.6 mph83%30.21 "Hg5 mi
10:30 PM63 °FClear.6 mph83%30.21 "Hg6 mi
10:00 PM64 °FClear.6 mph78%30.18 "Hg10 mi
9:30 PM64 °FSunny.5 mph78%30.18 "Hg10 mi
9:00 PM64 °FSunny.6 mph78%30.18 "Hg10 mi
8:30 PM68 °FSunny.3 mph69%30.18 "Hg10 mi
8:00 PM68 °FSunny.7 mph69%30.18 "Hg10 mi
7:00 PM70 °FSunny.5 mph69%30.18 "Hg10 mi
6:30 PM70 °FSunny.6 mph69%30.18 "Hg10 mi
6:00 PM70 °FPartly sunny.6 mph64%30.18 "HgN/A
5:30 PM70 °FPartly sunny.7 mph69%30.18 "HgN/A
5:00 PM70 °FPartly sunny.7 mph69%30.18 "HgN/A
4:30 PM70 °FPartly sunny.3 mph69%30.18 "HgN/A
4:00 PM70 °FPartly sunny.3 mph64%30.18 "HgN/A
3:30 PM70 °FScattered clouds.5 mph69%30.18 "HgN/A
3:00 PM68 °FPartly sunny.2 mph73%30.18 "HgN/A
2:30 PM70 °FPartly sunny.2 mph73%30.18 "HgN/A
2:00 PM68 °FPartly sunny.3 mph78%30.18 "HgN/A
1:30 PM68 °FScattered clouds.3 mph78%30.18 "HgN/A
1:00 PM66 °FScattered clouds.7 mph83%30.18 "HgN/A
12:30 PM68 °FBroken clouds.7 mph83%30.18 "HgN/A
12:00 PM66 °FBroken clouds.6 mph83%30.18 "Hg6 mi
11:30 AM66 °FBroken clouds.3 mph83%30.18 "Hg6 mi
11:00 AM64 °FBroken clouds.No wind88%30.18 "Hg4 mi
10:30 AM63 °FBroken clouds.No wind94%30.18 "Hg4 mi
10:00 AM63 °FFog.2 mph94%30.18 "Hg3 mi
9:30 AM61 °FFog.1 mph100%30.18 "Hg2 mi
9:00 AM61 °FFog.No wind100%30.15 "Hg2 mi
8:30 AM61 °FFog.No wind94%30.15 "Hg1 mi
8:00 AM61 °FFog.1 mph94%30.15 "Hg2 mi
7:30 AM59 °FFog.No wind100%30.15 "Hg2 mi
7:00 AM59 °FFog.1 mph100%30.15 "Hg2 mi
6:30 AM59 °FLight rain. Low clouds.1 mph100%30.15 "Hg2 mi
6:00 AM61 °FLight rain. Low clouds.No wind94%30.12 "Hg1 mi
5:00 AM59 °FLight rain. Passing clouds.1 mph100%30.12 "Hg1 mi
4:30 AM59 °FFog.2 mph100%30.12 "Hg2 mi
4:00 AM59 °FDrizzle. Fog.No wind100%30.12 "Hg2 mi
3:30 AM61 °FDrizzle. Fog.2 mph94%30.15 "Hg2 mi
3:00 AM61 °FOvercast.2 mph94%30.15 "Hg5 mi
2:30 AM59 °FOvercast.No wind100%30.15 "Hg4 mi
2:00 AM59 °FDrizzle. Mostly cloudy.3 mph100%30.15 "Hg2 mi
1:00 AM61 °FOvercast.3 mph94%30.15 "HgN/A
12:00 AM61 °FOvercast.5 mph94%30.15 "HgN/A
Weather by CustomWeather, © 2014

See weather overviewHow to use our weather pages